TimeEDT,TemperatureF,Dew PointF,Humidity,Sea Level PressureIn,VisibilityMPH,Wind Direction,Wind SpeedMPH,Gust SpeedMPH,PrecipitationIn,Events,Conditions,WindDirDegrees,DateUTC
12:15 AM,70.3,68.9,95,29.87,10.0,West,9.2,-,N/A,,Clear,270,2013-09-13 04:15:00
12:35 AM,70.3,68.4,93,29.86,10.0,West,4.6,-,N/A,,Scattered Clouds,280,2013-09-13 04:35:00
12:55 AM,69.6,68.0,95,29.84,7.0,Calm,Calm,-,N/A,,Clear,0,2013-09-13 04:55:00
1:15 AM,69.8,68.0,94,29.85,10.0,West,3.5,-,N/A,,Clear,270,2013-09-13 05:15:00
1:35 AM,70.0,67.1,91,29.85,10.0,WNW,4.6,-,N/A,,Clear,290,2013-09-13 05:35:00
1:55 AM,70.7,66.7,87,29.84,10.0,Calm,Calm,-,N/A,,Clear,0,2013-09-13 05:55:00
2:15 AM,69.3,67.3,93,29.84,7.0,North,3.5,-,N/A,,Clear,350,2013-09-13 06:15:00
2:35 AM,68.0,67.3,98,29.84,4.0,Calm,Calm,-,N/A,,Scattered Clouds,0,2013-09-13 06:35:00
2:55 AM,69.1,66.6,92,29.83,10.0,WNW,3.5,-,N/A,,Scattered Clouds,290,2013-09-13 06:55:00
3:15 AM,70.5,64.6,81,29.83,10.0,NW,4.6,-,N/A,,Overcast,310,2013-09-13 07:15:00
3:35 AM,70.2,64.4,82,29.82,10.0,WNW,3.5,-,N/A,,Overcast,290,2013-09-13 07:35:00
3:55 AM,68.9,65.5,89,29.83,10.0,WNW,3.5,-,N/A,,Overcast,290,2013-09-13 07:55:00
4:15 AM,69.8,64.4,83,29.83,10.0,WNW,3.5,-,N/A,,Overcast,300,2013-09-13 08:15:00
4:35 AM,69.3,64.8,86,29.82,10.0,West,4.6,-,N/A,,Overcast,270,2013-09-13 08:35:00
4:55 AM,67.5,64.9,92,29.83,10.0,Calm,Calm,-,N/A,,Mostly Cloudy,0,2013-09-13 08:55:00
5:15 AM,66.4,64.4,93,29.83,10.0,West,3.5,-,N/A,,Clear,280,2013-09-13 09:15:00
5:35 AM,65.7,64.2,95,29.84,10.0,Calm,Calm,-,N/A,,Clear,0,2013-09-13 09:35:00
5:55 AM,67.1,63.5,88,29.84,10.0,Calm,Calm,-,N/A,,Clear,0,2013-09-13 09:55:00
6:15 AM,64.4,63.5,97,29.84,7.0,Calm,Calm,-,N/A,,Clear,0,2013-09-13 10:15:00
6:35 AM,63.1,62.6,98,29.85,5.0,Calm,Calm,-,N/A,,Clear,0,2013-09-13 10:35:00
6:55 AM,63.0,62.6,99,29.86,5.0,Calm,Calm,-,N/A,,Clear,0,2013-09-13 10:55:00
7:15 AM,62.6,62.1,98,29.86,5.0,Calm,Calm,-,N/A,,Clear,0,2013-09-13 11:15:00
7:35 AM,63.1,62.1,96,29.86,7.0,West,3.5,-,N/A,,Scattered Clouds,270,2013-09-13 11:35:00
7:55 AM,63.3,62.6,97,29.87,4.0,Calm,Calm,-,N/A,,Scattered Clouds,0,2013-09-13 11:55:00
8:15 AM,65.5,64.0,95,29.87,10.0,Calm,Calm,-,N/A,,Clear,0,2013-09-13 12:15:00
8:35 AM,66.7,64.0,91,29.87,10.0,Calm,Calm,-,N/A,,Clear,0,2013-09-13 12:35:00
8:55 AM,68.5,64.2,86,29.86,10.0,West,4.6,-,N/A,,Clear,280,2013-09-13 12:55:00
9:15 AM,72.3,63.9,75,29.87,10.0,WNW,4.6,-,N/A,,Clear,290,2013-09-13 13:15:00
9:35 AM,72.9,64.2,74,29.87,10.0,WNW,4.6,-,N/A,,Clear,290,2013-09-13 13:35:00
9:55 AM,74.5,64.2,70,29.87,10.0,West,5.8,-,N/A,,Clear,270,2013-09-13 13:55:00
10:15 AM,75.2,63.5,67,29.87,10.0,WNW,5.8,-,N/A,,Clear,300,2013-09-13 14:15:00
10:35 AM,76.8,63.5,63,29.87,10.0,West,5.8,-,N/A,,Clear,270,2013-09-13 14:35:00
10:55 AM,77.4,62.1,59,29.87,10.0,West,3.5,-,N/A,,Clear,280,2013-09-13 14:55:00
11:15 AM,77.7,61.2,57,29.87,10.0,Calm,Calm,-,N/A,,Scattered Clouds,0,2013-09-13 15:15:00
11:35 AM,76.3,61.9,61,29.87,10.0,NW,6.9,-,N/A,,Mostly Cloudy,310,2013-09-13 15:35:00
11:55 AM,78.4,61.2,55,29.86,10.0,NNW,10.4,-,N/A,,Scattered Clouds,340,2013-09-13 15:55:00
12:15 PM,78.4,61.5,56,29.86,10.0,NW,6.9,-,N/A,,Scattered Clouds,310,2013-09-13 16:15:00
12:35 PM,77.0,61.5,59,29.86,10.0,WNW,6.9,-,N/A,,Mostly Cloudy,290,2013-09-13 16:35:00
12:55 PM,79.3,61.3,54,29.86,10.0,NW,8.1,-,N/A,,Mostly Cloudy,320,2013-09-13 16:55:00
1:15 PM,80.4,59.0,48,29.85,10.0,North,4.6,-,N/A,,Scattered Clouds,350,2013-09-13 17:15:00
1:35 PM,76.8,59.2,54,29.86,10.0,NNW,4.6,-,N/A,,Overcast,330,2013-09-13 17:35:00
1:55 PM,80.2,59.7,49,29.85,10.0,NW,9.2,-,N/A,,Mostly Cloudy,310,2013-09-13 17:55:00
2:15 PM,81.9,58.8,45,29.84,10.0,NW,6.9,-,N/A,,Scattered Clouds,310,2013-09-13 18:15:00
2:35 PM,78.3,57.7,49,29.84,10.0,NW,4.6,-,N/A,,Clear,320,2013-09-13 18:35:00
2:55 PM,81.1,57.7,45,29.83,10.0,WNW,5.8,-,N/A,,Clear,300,2013-09-13 18:55:00
3:15 PM,82.0,57.7,43,29.83,10.0,NW,8.1,-,N/A,,Clear,320,2013-09-13 19:15:00
3:35 PM,81.0,57.6,45,29.82,10.0,NNW,8.1,-,N/A,,Scattered Clouds,340,2013-09-13 19:35:00
3:55 PM,80.1,56.7,45,29.82,10.0,NNW,8.1,-,N/A,,Clear,340,2013-09-13 19:55:00
4:15 PM,79.9,56.8,45,29.83,10.0,North,9.2,-,N/A,,Clear,350,2013-09-13 20:15:00
4:35 PM,79.2,55.8,44,29.83,10.0,NNW,8.1,-,N/A,,Clear,340,2013-09-13 20:35:00
4:55 PM,78.8,53.8,42,29.83,10.0,NNW,9.2,-,N/A,,Scattered Clouds,340,2013-09-13 20:55:00
5:15 PM,78.1,53.1,42,29.83,10.0,NNW,8.1,17.3,N/A,,Clear,330,2013-09-13 21:15:00
5:35 PM,77.7,54.3,44,29.84,10.0,NNW,6.9,-,N/A,,Clear,340,2013-09-13 21:35:00
5:55 PM,76.6,53.6,45,29.84,10.0,NNW,6.9,-,N/A,,Clear,340,2013-09-13 21:55:00
6:15 PM,76.3,54.0,46,29.84,10.0,NW,8.1,-,N/A,,Clear,320,2013-09-13 22:15:00
6:35 PM,75.0,53.6,47,29.84,10.0,North,8.1,-,N/A,,Clear,360,2013-09-13 22:35:00
6:55 PM,73.6,53.8,50,29.85,10.0,NNW,6.9,-,N/A,,Clear,340,2013-09-13 22:55:00
7:15 PM,71.8,53.1,52,29.86,10.0,NNW,6.9,-,N/A,,Scattered Clouds,340,2013-09-13 23:15:00
7:35 PM,70.7,53.4,54,29.86,10.0,NNW,6.9,-,N/A,,Mostly Cloudy,340,2013-09-13 23:35:00
7:55 PM,69.4,53.6,57,29.87,10.0,NNW,4.6,-,N/A,,Mostly Cloudy,340,2013-09-13 23:55:00
8:15 PM,68.7,52.9,57,29.88,10.0,NNW,5.8,-,N/A,,Scattered Clouds,340,2013-09-14 00:15:00
8:35 PM,67.1,52.7,60,29.89,10.0,NNW,4.6,-,N/A,,Clear,340,2013-09-14 00:35:00
8:55 PM,66.6,52.7,61,29.90,10.0,NNW,4.6,-,N/A,,Scattered Clouds,340,2013-09-14 00:55:00
9:15 PM,65.7,52.9,63,29.91,10.0,NNW,4.6,-,N/A,,Mostly Cloudy,330,2013-09-14 01:15:00
9:35 PM,65.1,52.0,62,29.92,10.0,NNW,3.5,-,N/A,,Scattered Clouds,340,2013-09-14 01:35:00
9:55 PM,64.0,52.7,67,29.92,10.0,North,3.5,-,N/A,,Mostly Cloudy,350,2013-09-14 01:55:00
10:15 PM,63.3,52.7,68,29.93,10.0,NNW,3.5,-,N/A,,Mostly Cloudy,340,2013-09-14 02:15:00
10:35 PM,62.6,52.2,69,29.93,10.0,NNW,3.5,-,N/A,,Scattered Clouds,340,2013-09-14 02:35:00
10:55 PM,62.1,52.7,71,29.94,10.0,North,4.6,-,N/A,,Scattered Clouds,360,2013-09-14 02:55:00
11:15 PM,61.2,51.8,71,29.94,10.0,NNE,3.5,-,N/A,,Scattered Clouds,30,2013-09-14 03:15:00
11:35 PM,61.9,50.9,67,29.94,10.0,North,5.8,-,N/A,,Scattered Clouds,360,2013-09-14 03:35:00
11:55 PM,61.0,50.9,69,29.94,10.0,North,6.9,-,N/A,,Scattered Clouds,10,2013-09-14 03:55:00